Regional Weather Roundup
Issued by NWS

Home | Current Version | Previous Version | Graphics & Text | Print | Product List | Glossary On
Versions: 1 2 3 4 5 6 7 8 9 10 11 12 13 14 15 16 17 18 19 20 21 22 23 24 25 26 27 28 29 30 31 32 33 34 35 36 37 38 39 40 41 42 43 44 45 46 47 48 49 50
000
ASUS44 KMEG 031610
RWRTN
TENNESSEE HOURLY STATE WEATHER ROUNDUP
NATIONAL WEATHER SERVICE MEMPHIS TN
1100 AM CDT THU SEP 03 2015

TNZ002-004-019-021-049-052-054-088>092-031700-
WEST TENNESSEE

CITY           SKY/WX    TMP DP  RH WIND       PRES   REMARKS
MEMPHIS INTL   MOSUNNY   88  71  57 VRB5      30.03F HX  94
NWS MEMPHIS      N/A     88 N/A N/A MISG        N/A
JACKSON        MOSUNNY   86  71  60 VRB3      30.03F HX  91
DYERSBURG      SUNNY     84  73  70 N3        30.04S HX  91
UNION CITY     SUNNY     88  72  58 NE3       30.02F HX  94
PARIS          SUNNY     84  70  61 VRB3      30.04F
LEXINGTON      SUNNY     86  72  62 VRB3      30.02F HX  92
$$

TNZ008-025-027-028-033-062-065-066-031700-
NORTH MIDDLE TENNESSEE

CITY           SKY/WX    TMP DP  RH WIND       PRES   REMARKS
NASHVILLE      MOSUNNY   89  67  47 E5        30.04F HX  92
CLARKSVILLE    SUNNY     87  66  49 CALM      30.03F
SMYRNA         MOSUNNY   93  70  47 CALM      30.05S HX  98
COOKEVILLE     SUNNY     88  70  55 VRB3      30.05F HX  92
CROSSVILLE     MOSUNNY   84  65  52 VRB5      30.11S
$$

TNZ061-075-076-078-094-096-097-031700-
SOUTH MIDDLE TENNESSEE

CITY           SKY/WX    TMP DP  RH WIND       PRES   REMARKS
FAYETTEVILLE   SUNNY     82  70  65 NE7       30.05S
TULLAHOMA      MOSUNNY   84  68  58 N8        30.06F
WINCHESTER     SUNNY     84  72  65 NE3       30.05S
MCMINNVILLE    SUNNY     84  73  70 VRB5      30.06F HX  91
COLUMBIA       SUNNY     88  75  66 E5        30.03F HX  97
SHELBYVILLE    SUNNY     88  73  62 E3        30.05F HX  96
$$

TNZ017-018-042-046-047-031700-
NORTHEAST TENNESSEE

CITY           SKY/WX    TMP DP  RH WIND       PRES   REMARKS
TRI CITIES     PTSUNNY   83  66  56 CALM      30.09S
ELIZABETHTON   SUNNY     81  66  61 CALM      30.08F
$$

TNZ012-013-036-069-073-074-031700-
CENTRAL EAST TENNESSEE

CITY           SKY/WX    TMP DP  RH WIND       PRES   REMARKS
KNOXVILLE      MOSUNNY   85  66  53 NE8       30.04F
OAK RIDGE      SUNNY     85  66  53 VRB3      30.06S
GATLINBURG     SUNNY     86  64  48 CALM      30.04F
MORRISTOWN     SUNNY     82  64  54 E5        30.08F
$$

TNZ083-085-099-031700-
SOUTHEAST TENNESSEE

CITY           SKY/WX    TMP DP  RH WIND       PRES   REMARKS
CHATTANOOGA    PTSUNNY   86  68  54 NE6       30.03F
$$

SKY/WX REPORTED AS FAIR MEANS FEW OR NO CLOUDS BELOW
12 THOUSAND FEET.




USA.gov is the U.S. government's official web portal to all federal, state and local government web resources and services.